User: anonymous   Login
Location: Muenchen
(48.1800°N, 11.5800°E)
Time: 21:49:30
(UTC+02:00)
Language:

Cosmos 2233 Rocket - Orbit

View from above orbital plane
View from above orbital plane
View from above satellite
View from above satellite

Ground track
Ground track

The orbit data is extracted from the following two-line orbital elements,

1 22488U 93008B   16242.31556378  .00000010  00000-0 -53540-5 0  9991
2 22488  82.9421 295.6346 0024517 325.6555  80.8898 13.77698965184079
Epoch (UTC): 29 August 2016 07:34:24
Eccentricity: 0.0024517
inclination: 82.9421°
perigee height: 954 km
apogee height: 990 km
right ascension of ascending node: 295.6346°
argument of perigee: 325.6555°
revolutions per day: 13.77698965
mean anomaly at epoch: 80.8898°
orbit number at epoch: 18407

The dashed part of the orbit path shows where the satellite is in the earth's shadow,  

DLR